Colby, KS

12:32 AM CDT on June 24, 2017 (GMT -0500)
Shaltz

Weather History for KCBK - April, 2013

Change the Weather History Date:

Tuesday, April 9, 2013

  Actual Average (KGLD) Record (KGLD)
Temperature  
Mean Temperature 40 °F -  
Max Temperature 62 °F 60 °F 90 °F (1930)
Min Temperature 19 °F 30 °F 8 °F (1989)
Degree Days  
Heating Degree Days 24    
Moisture  
Dew Point 27 °F    
Average Humidity 96    
Maximum Humidity 100    
Minimum Humidity 88    
Precipitation  
Precipitation 0.00 in - - ()
Sea Level Pressure  
Sea Level Pressure 29.86 in    
Wind  
Wind Speed 25 mph (NNW)    
Max Wind Speed 31 mph    
Max Gust Speed 43 mph    
Visibility 5 miles    
Events Rain , Snow    
Averages and records for this station are not official NWS values.
T = Trace of Precipitation, MM = Missing Value Source: NWS Daily Summary

Daily Weather History Graph

Daily Weather History Graph

Search for Another Location

Airport or City:

Trip Planner

Search our weather history database for the weather conditions in past years. The results will help you decide how hot, cold, wet, or windy it might be!

Date:

Astronomy

Apr. 09, 2013 Rise Set
Actual Time 7:15 AM CDT 8:16 PM CDT
Civil Twilight 6:48 AM CDT 8:43 PM CDT
Nautical Twilight 6:15 AM CDT 9:16 PM CDT
Astronomical Twilight 5:41 AM CDT 9:50 PM CDT
Moon 6:39 AM CDT (4/9) 7:53 PM CDT (4/9)
Length of Visible Light 13h 55m
Length of Day
13h 00m
Waning Crescent, 1% of the Moon is Illuminated
Apr 9
Waning Crescent
Apr 10
New
Apr 18
First Quarter
Apr 25
Full
May 2
Last Quarter

Hourly Weather History & Observations

Time (CDT) Temp. Windchill Dew Point Humidity Pressure Visibility Wind Dir Wind Speed Gust Speed Precip Events Conditions
12:15 AM 62.6 °F - 60.8 °F 94% 29.42 in 10.0 mi SE 24.2 mph 33.4 mph N/A   Overcast
12:35 AM 62.6 °F - 60.8 °F 94% 29.42 in 10.0 mi SE 27.6 mph 35.7 mph N/A   Overcast
12:55 AM 62.6 °F - 60.8 °F 94% 29.43 in 10.0 mi SE 21.9 mph 31.1 mph N/A   Overcast
1:15 AM 62.6 °F - 60.8 °F 94% 29.44 in 10.0 mi SE 24.2 mph 28.8 mph N/A   Overcast
1:35 AM 62.6 °F - 60.8 °F 94% 29.44 in 10.0 mi SE 21.9 mph 27.6 mph N/A   Overcast
1:55 AM 62.6 °F - 59.0 °F 88% 29.52 in 10.0 mi NNW 16.1 mph 29.9 mph N/A   Overcast
2:15 AM 50.0 °F - 48.2 °F 94% 29.54 in 10.0 mi North 26.5 mph 32.2 mph N/A   Overcast
2:35 AM 46.4 °F 38.1 °F 46.4 °F 100% 29.54 in 10.0 mi North 24.2 mph 29.9 mph N/A   Light Drizzle
2:55 AM 44.6 °F 35.3 °F 44.6 °F 100% 29.55 in 10.0 mi NNE 26.5 mph 32.2 mph N/A   Overcast
3:15 AM 42.8 °F 32.1 °F 42.8 °F 100% 29.56 in 10.0 mi NNE 31.1 mph 36.8 mph N/A   Overcast
3:35 AM 42.8 °F 33.1 °F 41.0 °F 93% 29.58 in 10.0 mi NNE 25.3 mph 36.8 mph N/A   Overcast
3:55 AM 41.0 °F 30.9 °F 41.0 °F 100% 29.60 in 10.0 mi North 24.2 mph 33.4 mph N/A   Overcast
4:15 AM 41.0 °F 30.7 °F 41.0 °F 100% 29.63 in 10.0 mi North 25.3 mph 28.8 mph N/A   Overcast
4:35 AM 39.2 °F 28.7 °F 39.2 °F 100% 29.67 in 10.0 mi North 23.0 mph 31.1 mph N/A   Overcast
4:55 AM 37.4 °F 26.4 °F 37.4 °F 100% 29.68 in 7.0 mi NNW 23.0 mph 31.1 mph N/A   Overcast
5:15 AM 35.6 °F 22.3 °F 35.6 °F 100% 29.66 in 3.0 mi NNW 31.1 mph 38.0 mph N/A   Light Drizzle
5:35 AM 33.8 °F 20.8 °F 33.8 °F 100% 29.71 in 4.0 mi NNW 26.5 mph 35.7 mph N/A Rain Light Rain
5:55 AM 33.8 °F 21.0 °F 33.8 °F 100% 29.72 in 3.0 mi NNW 25.3 mph 35.7 mph N/A   Light Drizzle
6:15 AM 32.0 °F 17.6 °F 32.0 °F 100% 29.73 in 2.5 mi NNW 29.9 mph 42.6 mph N/A   Overcast
6:35 AM 32.0 °F 17.9 °F 32.0 °F 100% 29.75 in 2.0 mi NNW 28.8 mph 39.1 mph N/A   Overcast
6:55 AM 30.2 °F 15.4 °F 30.2 °F 100% 29.76 in 2.5 mi NNW 28.8 mph 40.3 mph N/A   Overcast
7:15 AM 26.6 °F 10.8 °F 26.6 °F 100% 29.79 in 3.0 mi NNW 27.6 mph 38.0 mph N/A   Overcast
7:35 AM 26.6 °F 11.1 °F 26.6 °F 100% 29.81 in 2.0 mi NNW 26.5 mph 36.8 mph N/A   Overcast
7:55 AM - - - N/A% - - North - - N/A   Unknown
8:15 AM 23.0 °F 6.9 °F 23.0 °F 100% 29.82 in 2.5 mi NNW 24.2 mph 34.5 mph N/A   Overcast
8:35 AM 23.0 °F 5.7 °F 23.0 °F 100% 29.86 in 2.5 mi NNW 28.8 mph 35.7 mph N/A   Overcast
8:55 AM 23.0 °F 6.0 °F 23.0 °F 100% 29.85 in 2.5 mi NNW 27.6 mph 36.8 mph N/A   Overcast
9:15 AM 21.2 °F 4.2 °F 21.2 °F 100% 29.85 in 2.0 mi NNW 25.3 mph 34.5 mph N/A   Overcast
9:35 AM 21.2 °F 4.5 °F 21.2 °F 100% 29.85 in 2.5 mi NNW 24.2 mph 38.0 mph N/A   Overcast
9:55 AM 21.2 °F 4.9 °F 21.2 °F 100% 29.87 in 2.5 mi NNW 23.0 mph 32.2 mph N/A   Overcast
10:15 AM 21.2 °F 3.9 °F 21.2 °F 100% 29.85 in 4.0 mi NNW 26.5 mph 33.4 mph N/A   Overcast
10:35 AM 21.2 °F 3.9 °F 21.2 °F 100% 29.88 in 2.5 mi NNW 26.5 mph 36.8 mph N/A Snow Light Snow
10:55 AM 21.2 °F 5.2 °F 21.2 °F 100% 29.92 in 4.0 mi NNW 21.9 mph 31.1 mph N/A Snow Light Snow
11:15 AM 21.2 °F 6.4 °F 21.2 °F 100% 29.92 in 4.0 mi NNW 18.4 mph 33.4 mph N/A Snow Light Snow
11:35 AM 21.2 °F 4.5 °F 19.4 °F 93% 29.92 in 4.0 mi NNW 24.2 mph 31.1 mph N/A Snow Light Snow
11:55 AM 21.2 °F 5.2 °F 21.2 °F 100% 29.93 in 2.5 mi NNW 21.9 mph 31.1 mph N/A Snow Light Snow
12:15 PM 21.2 °F 3.9 °F 19.4 °F 93% 29.92 in 2.5 mi NNW 26.5 mph 34.5 mph N/A Snow Light Snow
12:35 PM 21.2 °F 3.9 °F 21.2 °F 100% 29.93 in 2.0 mi NNW 26.5 mph 31.1 mph N/A Snow Light Snow
12:55 PM 21.2 °F 4.2 °F 19.4 °F 93% 29.95 in 2.5 mi NNW 25.3 mph 29.9 mph N/A Snow Light Snow
1:15 PM 21.2 °F 4.9 °F 19.4 °F 93% 29.94 in 2.5 mi NNW 23.0 mph 29.9 mph N/A Snow Light Snow
1:35 PM 21.2 °F 4.2 °F 21.2 °F 100% 29.93 in 2.5 mi NNW 25.3 mph 31.1 mph N/A Snow Light Snow
1:55 PM 21.2 °F 4.2 °F 19.4 °F 93% 29.93 in 2.0 mi NNW 25.3 mph 33.4 mph N/A Snow Light Snow
2:15 PM 21.2 °F 4.9 °F 19.4 °F 93% 29.95 in 3.0 mi NNW 23.0 mph 32.2 mph N/A Snow Light Snow
2:35 PM 21.2 °F 4.5 °F 19.4 °F 93% 29.95 in 3.0 mi NNW 24.2 mph 28.8 mph N/A Snow Light Snow
2:55 PM 21.2 °F 4.2 °F 19.4 °F 93% 29.94 in 2.5 mi NNW 25.3 mph 29.9 mph N/A Snow Light Snow
3:15 PM 21.2 °F 3.5 °F 19.4 °F 93% 29.94 in 4.0 mi NNW 27.6 mph 32.2 mph N/A Snow Light Snow
3:35 PM 21.2 °F 5.6 °F 19.4 °F 93% 29.96 in 4.0 mi NNW 20.7 mph 34.5 mph N/A Snow Light Snow
3:55 PM 21.2 °F 4.9 °F 19.4 °F 93% 29.97 in 4.0 mi NNW 23.0 mph 32.2 mph N/A Snow Light Snow
4:15 PM 21.2 °F 4.5 °F 19.4 °F 93% 29.98 in 4.0 mi NNW 24.2 mph 34.5 mph N/A Snow Light Snow
4:35 PM 21.2 °F 3.9 °F 19.4 °F 93% 29.97 in 3.0 mi NNW 26.5 mph 33.4 mph N/A Snow Light Snow
4:55 PM 21.2 °F 4.9 °F 21.2 °F 100% 29.97 in 2.0 mi NNW 23.0 mph 29.9 mph N/A Snow Light Snow
5:15 PM 21.2 °F 4.5 °F 21.2 °F 100% 29.98 in 2.0 mi NNW 24.2 mph 28.8 mph N/A Snow Light Snow
5:35 PM 21.2 °F 6.0 °F 19.4 °F 93% 29.99 in 2.0 mi NNW 19.6 mph 32.2 mph N/A Snow Light Snow
5:55 PM 21.2 °F 5.6 °F 19.4 °F 93% 30.00 in 3.0 mi NNW 20.7 mph 33.4 mph N/A Snow Light Snow
6:15 PM 21.2 °F 4.5 °F 19.4 °F 93% 30.02 in 4.0 mi NNW 24.2 mph 32.2 mph N/A Snow Light Snow
6:35 PM 21.2 °F 3.9 °F 19.4 °F 93% 30.01 in 1.8 mi NNW 26.5 mph 31.1 mph N/A Snow Light Snow
6:55 PM 21.2 °F 4.2 °F 19.4 °F 93% 30.02 in 2.0 mi NNW 25.3 mph 32.2 mph N/A Snow Light Snow
7:15 PM 19.4 °F 2.5 °F 19.4 °F 100% 30.05 in 2.0 mi NNW 23.0 mph 29.9 mph N/A Snow Light Snow
7:35 PM 19.4 °F 2.5 °F 19.4 °F 100% 30.06 in 2.0 mi NNW 23.0 mph 28.8 mph N/A Snow Light Snow
7:55 PM 19.4 °F 2.1 °F 19.4 °F 100% 30.04 in 2.5 mi NNW 24.2 mph - N/A Snow Light Snow
8:15 PM 19.4 °F 3.6 °F 17.6 °F 93% 30.07 in 3.0 mi NNW 19.6 mph - N/A Snow Light Snow
8:35 PM 19.4 °F 2.8 °F 19.4 °F 100% 30.08 in 3.0 mi NNW 21.9 mph 28.8 mph N/A Snow Light Snow
8:55 PM 19.4 °F 3.2 °F 19.4 °F 100% 30.06 in 2.5 mi NNW 20.7 mph 29.9 mph N/A Snow Light Snow
9:15 PM 19.4 °F 1.4 °F 17.6 °F 93% 30.05 in 4.0 mi NNW 26.5 mph 32.2 mph N/A Snow Light Snow
9:35 PM 19.4 °F 3.2 °F 17.6 °F 93% 30.11 in 4.0 mi NW 20.7 mph 31.1 mph N/A Snow Light Snow
9:55 PM 19.4 °F 2.1 °F 17.6 °F 93% 30.10 in 5.0 mi NNW 24.2 mph 31.1 mph N/A Snow Light Snow
10:15 PM 19.4 °F 2.1 °F 17.6 °F 93% 30.06 in 10.0 mi NNW 24.2 mph 32.2 mph N/A Snow Light Snow
10:35 PM 19.4 °F 1.4 °F 17.6 °F 93% 30.07 in 10.0 mi NNW 26.5 mph 35.7 mph N/A   Overcast
10:55 PM 19.4 °F 1.4 °F 17.6 °F 93% 30.07 in 7.0 mi NNW 26.5 mph 38.0 mph N/A Snow Light Snow
11:15 PM 19.4 °F 1.8 °F 17.6 °F 93% 30.09 in 7.0 mi NNW 25.3 mph 33.4 mph N/A Snow Light Snow
11:35 PM 19.4 °F 2.5 °F 17.6 °F 93% 30.08 in 10.0 mi NNW 23.0 mph 33.4 mph N/A Snow Light Snow
11:55 PM 19.4 °F 1.1 °F 17.6 °F 93% 30.07 in 10.0 mi NNW 27.6 mph 32.2 mph N/A Snow Light Snow